Theta_e
336 335 333 331 332 333 333 334 334 332 331 332 333 332 330 330 330 330 331 331 330 329 329 329 328 329 329 329 331 333 334 333 331 331 331 330 330 329 329 330 332 333 331 331 330 330 330 327 323 321 317 312 311 317 321 319 319 320 319 320 322 320 319 321 321 320 320 320 321 321 320 320 320 321 321 320 320 320 320 321 321 321 322 322 322
335 335 333 333 333 334 334 334 334 333 332 331 332 331 330 331 330 330 331 330 329 328 329 328 328 328 328 328 330 333 333 333 331 331 331 331 330 330 330 331 333 333 331 331 331 330 330 329 327 325 322 315 309 312 315 314 318 321 319 319 319 319 320 319 319 320 320 320 320 320 319 319 319 320 320 320 320 319 319 320 321 321 321 321 321
335 335 334 334 335 334 334 335 333 333 332 332 332 331 331 332 331 330 330 329 329 328 329 328 328 328 327 328 330 332 333 332 332 331 331 331 331 331 330 331 332 333 331 331 331 330 329 329 327 326 324 320 315 314 314 314 317 319 318 317 316 318 320 319 319 319 318 319 319 319 319 318 318 319 319 320 319 319 319 319 320 320 320 320 319
335 335 335 335 336 336 335 335 333 332 331 332 332 331 331 331 330 330 330 329 329 328 329 328 328 328 327 327 329 332 333 333 332 331 331 331 332 332 331 331 331 332 332 331 331 329 329 330 328 326 325 323 321 318 318 319 319 317 317 317 318 319 319 318 319 319 317 318 318 318 319 318 318 318 319 319 319 319 319 318 319 320 320 320 319
336 335 336 336 336 336 335 334 333 332 332 332 332 331 331 331 330 329 330 329 329 329 329 328 328 328 327 327 328 332 333 333 332 330 331 331 332 332 332 332 331 331 331 331 331 329 329 329 329 328 327 326 323 321 321 322 322 320 319 317 318 319 318 316 318 319 318 317 317 317 318 318 318 318 318 319 319 319 318 319 319 319 319 319 319
336 335 335 335 335 335 334 334 333 332 332 332 332 331 331 330 330 330 330 329 329 329 329 329 328 328 327 327 329 332 332 332 331 330 330 330 332 333 332 333 332 331 331 331 331 330 329 328 328 329 329 328 325 323 324 324 324 324 322 319 317 317 317 317 317 317 317 318 317 316 316 317 317 317 318 318 318 318 318 318 318 318 318 317 318
335 335 335 334 333 333 333 333 332 332 332 332 332 331 331 330 331 331 330 330 329 329 329 329 329 328 327 328 330 331 332 332 331 330 330 328 331 333 332 333 332 331 331 332 331 331 330 328 327 328 329 328 327 326 327 326 324 324 324 321 318 315 315 317 317 315 317 318 315 313 314 316 315 315 316 316 316 317 317 317 317 317 317 316 316
335 335 334 334 333 332 332 332 332 332 332 332 332 331 331 331 332 333 331 329 329 329 329 329 329 328 328 328 329 330 330 332 331 331 330 328 330 332 332 333 332 331 331 331 331 331 330 329 328 327 327 327 326 327 328 327 325 324 324 322 321 318 316 317 316 316 319 317 315 316 315 314 313 313 314 315 315 315 316 317 317 316 316 316 316
335 335 334 333 333 332 331 331 331 332 332 332 332 331 331 331 331 333 332 329 328 329 329 329 329 328 328 329 329 330 330 331 331 331 331 329 329 332 332 332 332 332 332 331 330 331 330 330 329 327 326 326 327 328 328 328 326 325 325 323 322 322 321 319 317 317 318 317 317 319 317 312 310 311 312 313 315 314 314 315 316 316 316 315 315
335 334 334 333 333 332 331 331 331 332 331 331 331 331 332 332 332 333 333 330 328 329 329 329 329 328 328 328 329 329 329 330 330 330 331 329 328 331 332 332 332 331 331 331 330 330 330 330 329 328 327 327 327 328 328 327 326 326 326 324 322 322 323 321 319 318 317 318 319 320 318 312 307 308 307 308 313 313 311 311 313 314 313 314 314
334 333 333 333 333 332 331 331 331 331 331 331 332 332 332 332 332 333 333 332 329 328 329 329 329 329 329 328 328 329 329 329 330 331 331 329 328 329 330 330 330 330 330 330 330 330 330 330 330 329 328 328 327 327 328 328 326 326 327 326 324 323 324 322 320 319 318 319 319 319 318 315 311 310 309 307 307 308 308 307 308 309 310 311 313
333 333 333 332 332 331 331 331 331 331 331 331 332 331 331 332 332 333 333 332 331 328 328 329 329 328 328 328 328 328 328 329 330 331 331 330 328 328 329 329 329 329 329 329 329 330 330 330 330 329 328 328 327 326 328 328 327 326 327 327 326 325 325 325 323 321 321 321 320 320 317 316 316 315 314 310 307 308 308 305 305 305 306 309 310
333 333 332 332 332 331 331 330 330 331 331 331 332 331 331 332 331 331 332 332 331 329 328 328 328 327 327 328 328 328 328 328 329 329 331 331 330 329 329 329 329 330 330 329 329 329 329 329 329 329 329 328 327 326 327 328 327 327 328 327 328 327 327 327 325 324 324 323 322 323 321 318 317 316 317 314 311 314 314 312 311 307 305 306 306
334 333 332 332 331 331 330 330 330 330 331 331 332 331 331 332 331 330 331 331 331 329 328 328 328 327 326 326 327 327 327 328 328 328 329 330 330 329 330 329 329 330 330 329 329 328 328 328 327 327 328 328 327 327 327 326 326 327 328 328 328 328 328 329 328 326 325 325 324 324 323 321 320 318 318 317 316 319 319 319 319 316 312 310 308
333 332 332 331 331 331 330 330 330 330 331 331 331 330 330 331 331 330 331 331 331 329 328 328 328 327 327 328 328 328 328 327 327 328 328 328 329 329 330 330 329 329 330 330 329 328 328 328 327 327 327 327 326 327 327 326 326 327 328 327 327 327 328 328 329 328 326 326 325 324 323 323 322 321 320 320 320 321 321 321 321 321 321 320 319
332 331 331 331 330 330 329 329 330 329 330 330 330 330 330 331 331 330 330 331 331 330 329 329 329 328 328 327 326 327 329 328 327 328 328 328 328 328 329 329 328 329 330 329 329 329 329 328 328 328 328 328 327 327 327 327 327 327 327 327 327 327 327 328 329 329 327 326 326 326 325 325 325 324 323 323 322 322 322 322 322 322 323 324 324
330 330 329 329 328 328 328 328 328 328 328 329 330 330 330 330 330 330 330 330 331 331 330 330 329 328 328 327 328 330 329 327 326 327 327 327 328 328 329 329 329 329 329 329 329 329 329 328 328 328 328 328 328 327 327 328 328 327 327 327 327 327 326 327 328 329 328 327 327 327 327 327 327 327 326 326 325 324 323 324 324 323 323 324 324
327 326 326 326 326 326 327 327 327 327 327 327 328 328 329 329 329 328 329 330 330 330 330 329 328 328 327 327 329 330 327 326 327 327 326 326 327 328 328 328 328 327 327 328 328 329 328 328 328 328 327 327 327 327 326 327 327 327 327 327 327 327 326 326 327 328 328 327 328 327 327 328 327 327 327 327 327 326 325 325 325 324 323 324 324
325 324 325 325 326 326 326 326 325 325 326 326 327 327 327 327 327 328 328 329 330 330 329 328 328 328 328 327 328 328 326 326 327 327 327 327 326 327 327 327 327 326 326 327 327 328 327 326 327 326 325 326 326 327 327 327 327 327 327 326 326 326 327 326 326 327 327 327 328 327 327 327 328 327 327 327 327 327 326 326 327 326 325 324 324
325 324 325 325 325 326 326 325 325 325 325 326 326 326 326 327 327 327 328 328 329 329 329 328 328 329 329 328 328 327 326 326 326 326 327 327 326 327 327 327 327 327 327 327 327 327 326 325 325 325 324 325 326 326 327 326 327 326 326 326 326 326 327 326 325 325 326 327 328 327 327 327 326 326 326 325 325 326 326 327 327 327 325 324 324
325 325 325 325 325 325 325 325 325 325 325 325 326 326 326 326 326 327 327 328 329 329 328 329 329 329 328 327 327 326 326 326 325 325 325 326 327 326 326 326 326 326 326 326 326 325 325 325 325 325 325 325 325 325 326 326 326 326 326 325 326 326 326 326 325 326 327 327 327 326 326 324 324 323 323 323 324 325 326 325 325 326 325 324 323
325 324 324 324 325 325 325 325 325 325 324 323 324 326 326 326 326 327 327 327 328 328 328 329 329 329 328 327 326 326 325 325 325 325 324 324 326 325 325 326 325 325 326 325 325 324 325 325 325 325 325 324 323 324 325 326 325 325 324 324 325 325 326 326 326 325 323 321 320 319 318 317 316 316 315 317 318 318 318 318 319 320 321 319 317
324 324 323 323 324 324 324 324 324 324 324 323 324 326 326 326 326 326 326 327 327 327 327 328 328 328 328 327 327 326 326 325 325 325 323 322 324 325 324 325 325 325 325 323 323 323 324 324 324 324 323 322 321 322 323 324 324 324 324 324 324 323 322 321 319 317 315 312 311 310 309 309 309 309 309 309 310 310 310 310 310 311 312 311 310
322 323 322 322 323 324 323 321 322 322 323 323 324 326 325 325 325 324 324 325 326 326 327 327 327 327 327 327 328 327 327 326 325 325 324 324 324 324 323 324 325 324 322 320 320 322 322 322 323 322 321 320 320 321 321 322 323 323 322 321 319 317 315 313 312 310 309 308 307 307 307 307 306 306 306 306 306 306 306 306 307 307 307 307 307
321 322 322 322 323 323 320 318 320 322 323 323 324 324 324 323 321 320 319 320 322 323 324 324 325 325 325 326 327 327 327 326 325 325 325 324 324 322 322 323 323 322 322 320 317 317 317 318 318 318 318 318 317 317 317 317 318 317 316 314 312 310 309 308 307 306 305 305 305 305 305 305 304 305 304 304 305 305 304 304 304 304 304 304 305
321 322 323 322 321 320 318 318 319 321 322 322 323 323 321 319 317 316 316 317 318 319 320 320 320 321 323 324 325 326 326 326 326 325 325 325 324 322 322 322 323 322 322 320 316 315 314 312 313 314 314 313 313 312 311 311 311 310 310 308 307 306 305 305 305 305 305 305 305 305 305 306 305 305 305 305 304 304 304 304 304 304 303 303 303
320 321 321 320 319 319 319 319 319 320 321 321 321 322 320 317 315 315 315 315 316 317 317 318 319 321 322 324 325 325 326 326 325 325 325 324 323 323 322 322 322 319 318 318 317 316 314 311 310 311 311 310 309 308 307 306 306 306 305 305 304 305 305 305 306 306 306 306 305 305 305 305 304 304 304 304 304 304 304 303 303 302 302 302 302
319 320 320 319 319 319 319 319 318 319 320 319 319 320 320 317 315 315 314 314 315 316 317 318 320 322 323 324 325 325 326 326 325 325 324 323 322 321 321 322 322 319 317 317 316 315 315 312 310 310 309 308 306 305 304 304 304 304 304 305 306 306 306 307 308 308 307 306 304 303 303 303 304 305 306 306 306 306 305 305 304 303 302 301 301
318 319 319 319 319 319 319 318 318 317 318 317 316 318 319 317 315 315 314 314 314 315 316 317 318 320 321 322 323 325 325 325 325 324 323 322 321 320 319 319 319 319 320 321 318 315 314 314 312 310 308 307 305 304 305 304 304 306 306 307 306 306 308 309 309 309 309 308 306 306 306 306 307 307 307 307 307 307 306 306 305 305 304 303 302
318 318 319 318 318 318 318 318 318 316 315 314 314 316 317 316 315 315 314 313 313 314 315 315 315 316 318 319 321 323 324 324 324 323 322 321 321 320 319 318 316 318 320 321 320 316 314 314 313 310 308 307 306 306 307 306 306 307 308 307 306 307 308 309 309 309 309 309 309 308 308 308 308 308 307 307 307 307 307 306 306 305 305 304 303
317 317 318 318 317 317 318 318 316 314 313 313 314 315 316 315 315 314 313 312 313 313 314 314 313 314 316 317 319 321 323 323 322 322 321 321 321 320 320 319 317 316 316 318 320 317 314 314 313 310 308 307 307 308 308 308 307 307 308 307 307 307 308 308 308 309 309 309 309 309 309 308 307 307 307 307 307 306 306 306 306 305 305 304 304
316 315 316 317 317 316 316 316 314 313 314 314 314 314 315 315 314 313 313 314 313 312 313 313 313 313 313 314 316 319 321 322 321 321 321 321 321 321 321 320 319 317 315 316 317 316 314 314 312 309 308 307 308 308 308 309 308 308 308 308 308 308 308 308 308 309 309 309 309 308 308 308 308 307 307 307 307 306 306 306 305 305 304 304 304
316 315 314 316 316 315 315 314 314 314 314 314 314 313 314 315 314 314 314 315 315 314 313 313 313 313 313 313 314 315 317 318 319 319 319 319 319 320 321 321 320 318 317 315 314 313 314 313 311 309 308 308 308 309 309 309 309 308 308 308 308 308 308 309 309 309 309 309 308 308 308 308 308 307 307 307 307 306 306 306 305 304 304 304 303
316 315 314 315 316 315 315 314 314 314 313 314 314 314 313 314 314 314 315 314 314 315 314 314 313 313 313 313 313 314 314 314 315 315 315 315 316 316 318 320 320 319 318 315 313 312 313 313 311 309 309 309 308 309 310 310 309 309 308 308 308 308 308 309 309 309 309 309 308 308 307 307 307 307 307 307 307 307 306 305 304 304 303 303 303
315 314 314 315 316 316 315 315 314 314 315 315 315 315 314 314 315 315 315 314 313 314 314 313 313 313 313 314 314 313 313 313 313 314 314 314 315 315 316 318 320 320 318 315 312 312 312 311 310 309 308 308 308 309 309 310 310 309 309 309 309 308 308 308 309 309 309 309 308 308 307 306 306 307 307 307 307 307 305 304 303 303 303 302 302
314 315 316 315 315 316 316 316 316 316 316 316 315 315 315 315 316 316 316 315 314 314 314 313 313 313 313 314 315 314 313 313 313 314 314 314 315 314 315 317 318 318 317 315 312 311 311 310 310 309 309 309 308 308 308 309 309 309 310 310 310 309 309 308 309 309 309 309 309 308 307 307 307 307 307 307 307 305 304 302 302 302 302 302 302
316 316 317 315 316 317 317 316 316 316 316 317 316 316 317 317 317 316 316 315 315 315 315 315 315 315 314 314 315 315 314 313 313 313 314 314 313 313 313 313 314 314 314 312 310 310 310 310 310 309 309 309 309 308 308 308 308 309 310 310 310 309 309 308 309 309 309 309 309 308 308 307 307 307 307 307 305 304 303 302 302 302 302 302 302
317 316 316 316 317 318 318 316 317 317 317 317 317 317 318 319 319 317 315 316 316 316 316 315 316 316 317 316 317 317 316 314 313 314 314 314 313 312 312 311 311 311 310 309 309 309 309 309 309 309 309 309 309 309 308 308 308 310 310 310 309 309 309 309 310 310 309 309 308 308 307 307 307 307 307 306 305 304 304 303 303 302 302 302 302
317 317 317 317 318 319 318 317 318 319 319 319 320 318 318 320 320 318 316 317 318 318 318 317 317 318 318 318 318 318 318 316 315 314 314 315 315 315 314 314 313 312 311 310 309 308 308 309 310 312 311 311 310 310 309 308 309 311 311 310 310 310 310 310 310 309 309 308 308 307 307 307 307 307 306 305 304 304 303 303 302 302 302 302 302
317 318 319 319 319 320 319 318 319 320 320 321 321 319 319 320 320 319 318 319 320 320 320 319 318 319 319 320 319 319 319 319 318 317 316 315 316 316 316 316 316 315 314 313 311 309 309 311 312 314 314 313 312 311 310 310 310 311 311 311 311 311 310 310 309 309 308 308 307 307 306 306 306 305 304 304 303 303 302 302 302 302 301 301 301
317 318 319 319 320 320 320 319 320 321 321 321 322 321 321 321 321 321 321 321 321 321 321 320 320 320 320 320 320 320 320 320 319 319 318 317 315 315 316 316 317 317 316 315 313 312 312 312 313 314 314 314 314 313 312 311 311 312 311 311 311 310 309 309 308 308 307 307 307 306 305 304 304 303 302 302 301 301 301 301 300 300 300 300 300
319 319 320 320 320 320 320 320 320 321 321 321 322 322 322 322 322 323 322 322 322 321 321 321 321 321 321 320 320 320 321 320 320 320 320 318 316 315 315 316 316 316 316 316 315 315 314 314 314 314 314 314 314 314 312 312 312 312 311 311 310 308 308 308 307 306 305 305 305 305 303 302 302 301 301 301 300 299 299 299 299 299 298 298 298
319 319 319 320 320 320 320 321 321 321 321 321 322 323 323 323 323 323 323 323 323 322 321 320 320 320 320 320 320 320 320 321 320 320 320 319 318 316 316 316 316 316 316 316 316 315 315 314 314 314 314 313 313 312 311 311 310 310 310 309 309 308 307 307 306 305 304 303 303 303 302 301 301 300 300 300 299 298 298 298 298 298 297 297 297
319 318 318 319 320 320 321 321 321 321 321 321 321 322 322 323 322 323 322 322 322 321 321 320 319 319 319 320 320 320 320 320 320 320 320 319 318 317 317 317 317 317 317 316 316 316 315 315 314 313 313 313 311 310 310 309 309 308 308 307 307 306 306 305 304 303 301 301 301 300 300 300 300 299 299 299 298 297 297 297 297 297 297 297 297
319 319 319 319 320 320 321 321 321 321 320 320 320 319 320 321 321 320 321 321 321 320 320 320 319 318 319 320 320 320 320 320 320 320 320 319 319 318 318 317 317 317 316 316 316 316 315 315 314 313 312 312 311 310 309 309 309 308 307 306 305 304 304 303 302 300 299 299 299 298 298 299 299 298 298 298 297 296 296 296 296 296 296 296 296
319 319 319 319 320 320 320 320 320 320 320 319 319 319 319 319 319 319 319 320 321 320 320 319 319 318 319 320 320 320 321 320 319 319 320 319 318 317 315 315 315 315 315 316 316 315 315 315 314 313 312 311 311 310 309 308 307 306 305 304 303 303 302 301 299 298 298 298 298 298 298 298 298 298 298 297 297 296 296 296 296 296 296 296 296
320 320 320 320 320 320 320 320 320 320 320 320 320 319 319 319 318 318 319 320 321 320 319 318 318 319 319 320 320 321 321 320 319 319 318 317 314 311 310 311 311 311 312 312 313 313 313 313 314 313 312 310 309 308 307 306 305 304 303 302 302 301 300 299 298 297 297 298 298 297 297 297 297 297 297 297 297 296 296 295 295 295 295 295 295
320 320 320 321 321 320 319 319 319 319 320 320 320 319 319 318 318 317 318 320 320 320 319 318 317 318 320 320 320 320 320 319 317 316 314 312 310 308 308 309 308 308 308 308 308 308 309 310 311 311 310 308 307 306 305 304 303 302 301 301 300 300 299 298 298 297 297 298 298 297 297 296 296 296 296 296 296 296 296 295 295 295 295 294 294
320 319 319 319 320 319 319 319 319 319 319 319 320 319 318 317 317 318 319 319 320 319 319 318 317 318 320 321 320 319 318 317 315 314 313 312 310 309 309 309 309 308 308 307 307 307 307 308 308 308 307 306 305 304 303 302 301 301 301 301 300 300 299 299 298 298 298 298 297 296 296 296 295 295 295 295 295 295 295 295 294 294 294 293 293
320 320 320 320 320 320 320 319 319 319 319 319 318 318 318 318 318 319 319 319 319 318 318 317 317 319 321 321 320 319 317 316 316 315 314 313 312 311 311 310 310 309 308 308 307 307 306 305 305 305 305 304 303 303 302 301 301 301 301 301 301 300 300 299 298 298 298 297 296 295 295 295 295 294 294 294 294 294 294 294 294 293 293 293 293
321 321 321 320 320 320 320 319 319 319 319 318 318 318 318 318 319 319 319 317 317 317 317 317 318 319 320 321 321 319 316 316 316 316 315 313 312 311 311 310 310 309 308 307 306 305 304 304 304 304 303 302 302 301 301 300 300 300 300 300 300 300 299 298 297 297 297 296 295 294 294 294 294 294 293 293 292 293 294 293 293 293 292 292 292
Wind_Speed
11 11 11 11 11 10 9 8 6 5 5 6 7 8 8 8 7 6 7 6 6 6 5 4 3 2 2 4 6 7 10 15 16 15 14 13 12 11 12 13 13 10 7 8 8 6 5 5 5 5 4 3 4 5 5 5 6 7 6 7 6 5 6 7 7 7 8 8 8 8 8 8 8 8 8 8 7 7 8 10 11 10 8 8 8
12 11 12 12 11 10 8 6 5 4 3 4 5 6 7 7 7 7 7 7 7 7 6 5 4 3 2 4 7 6 9 14 15 14 13 12 12 12 12 13 12 9 7 9 8 6 6 6 4 3 3 2 3 4 4 4 6 6 6 6 6 5 5 5 6 6 7 7 7 7 7 7 7 7 8 8 8 8 8 10 11 9 8 6 6
13 12 12 11 9 8 6 5 3 3 2 3 3 4 6 6 6 7 8 8 8 8 7 6 6 4 3 4 6 7 9 13 14 13 11 11 13 13 12 12 11 9 8 9 7 6 7 5 1 2 3 3 4 4 4 4 5 5 4 5 6 6 5 5 5 4 5 6 6 6 6 6 7 8 8 8 8 8 9 10 10 9 9 8 6
13 12 11 10 9 7 6 5 4 3 2 2 2 3 6 6 6 7 7 8 9 9 8 8 7 5 4 5 7 8 10 13 13 12 12 12 14 13 13 12 11 11 9 8 6 6 6 5 1 2 3 4 4 3 3 4 4 3 3 4 4 5 4 4 4 3 3 4 4 5 5 6 7 7 8 8 8 8 8 9 9 8 9 10 10
14 12 11 10 9 8 7 6 5 4 3 3 3 4 5 6 6 7 7 8 9 10 9 9 8 6 5 5 7 9 11 12 12 12 13 13 14 14 13 12 10 11 10 8 6 5 6 5 3 2 3 4 4 4 5 4 4 3 2 2 3 3 3 4 4 3 2 3 3 4 4 5 5 6 7 7 7 7 7 8 8 8 7 10 11
13 12 11 10 9 9 8 7 6 5 4 4 4 5 6 6 6 7 8 9 9 9 9 10 9 7 7 7 8 10 10 11 11 13 13 13 15 14 12 12 10 10 10 10 8 5 5 5 3 3 4 5 4 4 5 4 4 3 3 2 1 2 3 3 3 2 2 3 2 2 3 4 4 4 5 6 6 6 7 7 7 7 6 8 9
12 10 10 10 8 8 8 7 5 5 6 6 6 7 7 7 8 8 9 9 9 9 9 10 10 9 9 9 10 11 11 12 12 13 12 12 15 15 12 12 11 10 10 10 9 7 4 4 4 3 3 3 2 3 4 3 3 3 3 3 2 1 2 2 2 2 3 2 1 2 3 3 3 4 4 4 5 5 6 6 6 6 6 7 7
10 10 9 9 8 8 7 6 6 7 7 7 7 7 7 8 8 8 9 10 10 10 9 10 10 10 10 10 10 11 11 11 11 11 10 11 15 15 13 13 11 10 9 9 9 9 5 3 4 3 1 0 1 2 3 2 3 3 2 3 3 2 2 2 1 2 2 1 2 3 3 2 2 3 3 3 4 4 5 6 6 5 6 6 7
9 10 9 9 9 8 7 7 7 8 8 8 7 7 7 7 8 8 7 9 10 10 10 10 10 10 10 9 9 9 9 9 9 9 9 11 15 15 14 13 11 10 9 8 9 9 6 3 2 3 2 2 1 1 2 1 1 1 1 3 3 2 3 2 2 2 2 2 3 2 1 1 2 3 3 3 3 3 4 5 5 5 5 5 5
10 10 9 9 9 8 8 8 8 8 9 9 8 7 7 6 8 9 7 8 9 10 11 11 11 10 9 9 7 7 7 7 8 8 9 11 14 15 14 13 11 10 10 8 8 8 7 6 4 4 4 1 1 3 3 1 1 4 2 3 3 2 3 3 4 3 3 3 2 0 2 1 2 3 2 3 3 3 3 4 4 3 3 4 4
11 11 10 10 9 9 8 8 9 9 9 9 9 8 8 7 8 9 9 8 8 9 12 12 11 11 10 9 8 7 7 6 6 7 9 10 13 13 12 11 11 10 10 9 9 7 7 9 7 6 6 5 4 2 1 2 1 5 5 2 3 3 3 4 7 7 6 5 2 1 1 0 2 3 4 3 3 3 3 3 3 3 3 3 3
13 12 11 10 9 9 8 8 9 10 10 9 9 8 8 9 10 10 10 9 9 9 11 12 13 13 12 12 11 9 7 6 5 6 7 8 10 11 10 10 10 10 10 9 8 8 8 9 8 7 7 7 6 3 1 2 4 4 5 4 5 3 2 4 6 8 7 6 3 3 3 2 1 1 3 4 3 3 4 4 3 3 3 2 2
13 12 10 9 9 9 9 9 10 10 9 9 9 9 8 10 10 10 9 9 10 9 10 13 14 15 15 15 16 13 9 7 6 5 5 6 6 8 9 9 9 9 9 8 8 8 8 8 8 8 8 7 7 5 3 5 6 5 5 4 5 5 3 3 4 4 4 4 4 4 5 5 3 2 2 3 3 4 4 4 4 4 3 2 2
12 11 10 9 10 10 9 10 10 10 10 9 9 9 9 9 10 11 10 9 10 10 11 10 9 12 13 12 13 14 13 10 9 7 4 2 3 4 5 7 10 8 6 7 8 7 7 7 7 8 8 7 6 5 5 7 8 6 5 3 2 2 1 2 4 5 3 2 2 3 4 5 5 4 4 3 3 3 3 5 5 5 5 5 4
11 10 9 9 9 9 10 10 10 10 10 10 10 10 10 8 8 11 11 10 8 10 12 6 7 14 12 7 3 5 8 10 10 9 6 4 2 1 2 3 6 7 5 6 8 8 7 7 6 6 6 6 5 5 7 8 7 7 5 3 4 3 1 0 3 6 6 5 4 2 3 4 5 5 5 4 4 3 2 3 6 6 6 7 7
11 10 10 11 11 10 10 10 10 9 9 9 9 9 10 8 7 9 11 11 8 10 10 7 9 13 7 3 2 2 2 4 7 9 8 6 5 4 3 2 3 3 4 4 5 6 7 7 6 6 5 6 6 6 7 6 4 5 5 3 3 3 2 1 2 4 6 7 7 5 3 2 3 4 4 3 2 2 1 1 3 4 4 6 7
13 13 13 13 13 12 11 10 9 8 7 7 8 8 8 7 7 8 10 12 9 10 10 8 11 10 4 4 3 1 2 3 5 7 8 7 6 5 3 2 2 2 3 3 2 3 4 5 5 5 4 4 6 6 5 3 2 3 4 3 2 2 1 0 1 3 6 8 7 6 5 4 4 2 2 1 1 1 1 2 2 2 1 3 4
14 13 13 13 12 12 11 10 9 8 7 7 7 6 6 6 7 8 10 12 11 11 10 10 13 9 4 5 1 1 7 7 3 3 6 8 7 5 4 2 3 3 3 4 3 1 0 1 2 1 1 1 0 1 1 1 1 2 2 2 1 1 2 2 2 2 4 6 5 4 5 6 5 4 4 4 4 4 3 3 5 4 3 2 2
12 11 11 11 11 11 10 9 8 7 6 7 7 6 5 6 6 8 10 12 13 14 12 13 14 8 7 7 4 3 12 9 4 3 4 5 8 8 7 6 5 6 6 7 5 3 4 5 5 3 3 5 5 5 5 4 3 3 2 2 2 2 3 4 3 2 1 2 1 2 0 1 1 1 2 2 4 5 4 5 7 7 6 5 5
10 9 9 9 9 9 9 9 8 7 7 7 7 6 5 5 6 8 10 12 13 14 14 15 14 8 5 5 3 8 12 9 9 9 5 3 5 7 8 9 8 8 8 7 6 5 6 7 6 5 5 6 6 6 6 6 6 6 7 7 7 6 5 4 3 3 4 3 4 5 5 7 8 7 6 6 6 6 5 4 5 5 5 5 4
10 8 7 7 7 8 8 9 9 9 8 7 7 6 5 5 6 9 10 12 12 12 13 14 13 9 6 7 10 13 10 9 12 12 8 4 3 2 7 11 9 9 8 7 7 7 7 7 7 7 8 8 8 8 8 8 8 9 11 12 11 10 9 9 9 8 9 9 9 10 10 11 11 10 9 9 8 7 6 6 7 9 9 9 8
11 9 7 6 8 9 9 10 10 9 8 6 6 7 6 5 6 9 10 11 11 11 11 12 11 9 8 11 15 15 10 9 11 13 11 7 4 3 7 9 7 8 10 9 8 8 7 7 7 8 10 10 10 10 10 10 10 12 14 15 14 14 13 13 12 12 13 13 13 13 12 12 11 11 10 10 10 9 9 9 9 9 10 9 9
11 10 8 7 10 11 10 10 9 8 7 6 7 7 7 6 7 9 10 11 12 11 11 10 9 8 8 10 15 15 10 9 13 15 12 9 7 5 8 11 8 9 10 9 9 9 9 9 9 10 10 10 10 10 11 12 12 13 15 15 16 15 15 14 13 13 13 13 13 12 12 12 11 11 11 11 11 10 10 10 10 9 9 8 8
10 9 9 9 12 12 10 9 8 9 9 8 8 8 7 7 7 8 9 10 10 10 10 9 7 7 7 8 12 13 10 11 17 17 14 18 16 8 9 11 9 9 10 9 9 11 11 11 10 10 10 10 11 11 12 12 13 14 15 15 15 15 14 13 13 12 12 12 11 11 11 10 10 10 11 10 10 10 10 10 10 9 8 7 7
10 9 11 13 14 13 10 9 9 9 9 9 9 8 7 7 7 8 8 8 9 9 9 8 6 6 7 7 10 12 9 10 16 15 17 25 22 13 10 11 10 9 8 8 9 10 10 11 11 11 11 11 12 12 12 12 13 13 13 14 14 13 13 12 12 12 12 11 11 11 11 11 11 12 12 12 12 12 11 11 11 10 9 8 8
11 11 14 16 14 12 11 10 9 8 9 9 9 8 8 8 9 10 10 10 10 10 9 8 7 6 6 6 9 12 10 10 14 16 20 25 23 18 14 11 11 9 6 6 7 6 7 10 11 11 11 11 12 12 12 12 12 12 12 12 12 13 13 13 13 13 13 13 12 12 11 11 12 12 13 13 14 14 13 12 11 11 10 10 9
13 13 15 16 13 12 12 10 9 8 9 9 8 9 9 10 12 12 13 13 12 12 11 9 8 6 5 5 6 8 9 11 14 17 23 27 25 25 22 12 6 5 4 4 3 3 6 9 10 10 10 10 10 11 11 11 11 12 12 12 13 14 14 15 16 16 16 15 14 13 12 13 14 15 17 18 19 19 19 18 16 15 13 12 11
14 13 14 14 13 13 12 10 9 9 8 8 9 10 10 11 12 12 12 13 12 13 13 11 10 8 7 6 7 8 10 11 13 18 24 25 23 26 26 20 10 4 3 2 1 2 6 6 7 9 9 9 10 11 12 12 12 12 12 12 13 14 16 18 19 19 18 17 17 16 16 16 17 18 19 20 21 22 23 23 22 20 18 16 14
13 13 12 13 13 13 12 11 10 8 8 8 9 12 13 12 12 11 11 11 11 13 13 13 12 10 9 9 9 11 12 12 14 20 24 23 22 23 22 22 19 10 3 1 2 4 7 6 5 8 10 10 11 12 12 12 13 13 12 12 12 15 18 19 18 18 18 18 17 17 16 16 16 16 17 18 19 21 22 23 23 22 20 19 16
13 13 12 11 12 12 12 11 10 8 9 9 11 13 14 13 12 11 10 10 11 12 13 13 14 12 10 9 10 11 13 14 17 21 22 21 21 21 18 17 16 11 8 5 3 7 10 8 6 7 11 11 11 11 12 11 12 12 11 11 13 15 16 14 14 15 15 15 14 14 14 13 14 14 15 16 17 18 20 21 21 20 20 19 17
12 12 12 12 12 12 12 11 10 10 10 10 11 13 14 13 12 11 10 11 12 13 13 13 14 14 12 10 10 12 13 16 18 20 20 19 19 19 17 15 11 9 12 11 4 8 13 10 8 9 11 12 11 10 10 10 10 10 10 10 11 12 10 9 10 11 12 12 11 11 11 11 11 12 12 13 14 15 18 20 20 18 18 17 17
12 12 12 13 13 12 12 11 10 10 10 10 10 12 13 13 12 11 11 11 12 12 12 12 12 13 14 12 11 12 14 16 18 19 18 18 18 18 17 18 15 10 13 13 7 8 14 11 9 11 12 11 10 10 10 10 10 10 9 8 8 8 7 6 7 8 9 9 8 8 8 8 8 9 10 10 11 12 15 18 18 17 16 16 16
12 12 12 13 13 13 12 10 10 10 10 9 9 11 13 13 12 11 10 9 9 10 10 11 10 10 12 13 12 12 13 15 16 16 16 15 16 19 19 21 20 15 14 13 10 10 13 11 10 13 13 12 10 9 10 10 10 10 9 8 6 5 5 4 4 4 5 6 6 6 6 6 5 6 7 8 9 10 14 17 16 15 15 15 15
12 12 13 14 13 12 12 11 11 11 10 10 10 11 13 13 12 11 9 8 8 9 9 9 9 8 9 11 10 10 11 13 14 13 12 12 12 15 19 23 24 20 16 14 11 12 13 11 11 13 13 12 10 9 10 10 10 9 8 7 6 4 3 2 2 2 2 2 3 4 5 5 5 3 4 6 7 9 14 15 14 14 14 14 14
12 12 14 14 13 12 13 12 12 12 12 11 11 11 12 13 12 10 8 7 7 7 7 7 6 6 6 8 8 8 8 10 11 11 10 10 10 12 16 23 26 23 20 15 11 12 14 13 13 14 13 12 10 9 8 8 7 6 6 5 5 5 4 2 0 1 2 3 3 3 4 5 5 4 4 5 7 11 13 12 11 11 12 13 13
13 13 13 14 14 14 14 14 13 13 13 12 12 11 11 11 10 9 8 8 7 6 5 5 4 3 4 5 6 6 6 8 9 9 9 9 9 10 13 20 23 23 21 17 12 12 15 15 14 14 14 12 10 9 9 8 6 5 5 5 6 6 5 4 3 2 3 4 4 4 4 5 4 4 4 6 9 11 10 9 9 10 11 12 12
16 14 13 15 16 15 15 15 14 14 14 13 12 12 11 9 9 10 10 9 8 6 5 5 3 2 2 3 5 5 5 6 7 7 8 8 8 9 11 16 19 20 18 16 12 13 15 16 15 14 13 13 11 10 10 9 8 6 6 7 7 7 7 6 5 4 4 4 3 3 2 2 2 4 6 9 10 9 9 9 10 11 11 11 10
19 17 16 18 18 16 16 16 15 15 15 14 14 13 12 11 10 12 12 11 9 8 7 6 5 4 3 3 4 4 4 5 7 6 7 8 8 10 12 13 14 15 14 13 12 12 14 15 14 13 12 12 11 10 10 9 9 7 6 6 5 6 8 7 6 5 3 2 2 2 1 2 4 7 9 10 10 10 11 12 13 13 13 11 9
21 19 18 19 19 18 18 19 18 16 16 16 16 16 15 13 12 13 13 12 10 9 8 8 7 7 6 5 4 4 4 4 6 7 7 7 8 9 9 9 10 10 10 11 11 12 14 14 11 10 10 9 9 8 8 9 9 7 7 8 8 9 9 7 6 5 4 4 3 1 2 5 8 10 10 11 11 12 13 13 14 14 12 10 9
22 20 19 19 20 19 20 21 20 19 18 17 17 18 18 15 14 14 14 13 12 11 10 10 10 9 9 8 7 7 6 5 5 6 6 7 7 8 9 9 9 9 9 10 10 12 13 12 11 10 9 8 8 7 8 9 10 8 9 10 10 10 9 7 6 6 5 3 1 4 7 9 10 10 10 10 11 11 11 11 11 10 9 9 8
22 22 21 21 21 21 21 22 21 21 20 19 18 19 19 17 16 15 15 15 14 13 13 13 12 12 12 11 10 9 9 9 8 7 6 7 8 9 9 9 10 10 10 10 11 12 11 10 10 9 9 8 8 8 8 9 9 8 9 9 9 9 7 6 6 4 3 3 5 8 10 10 10 10 10 10 10 10 9 8 8 8 8 9 10
24 23 23 23 23 23 23 23 23 23 23 21 20 20 20 18 17 17 17 17 16 14 14 15 15 15 14 13 13 12 12 11 10 9 8 8 9 9 9 9 10 10 11 11 10 10 10 9 8 8 7 7 6 8 9 8 7 7 6 6 7 6 4 3 4 2 4 6 9 10 11 11 10 9 9 10 10 9 9 9 9 10 11 12 13
25 24 24 25 24 24 24 24 25 24 23 22 21 21 21 19 19 18 18 18 17 16 16 16 16 16 16 15 15 14 14 13 13 12 11 11 10 10 10 9 8 8 8 9 9 9 9 8 7 6 6 6 6 7 8 7 7 6 5 4 3 1 1 1 1 3 6 10 11 12 11 10 9 8 8 9 9 9 10 10 11 12 14 14 15
24 24 26 26 25 25 24 24 24 24 22 22 21 21 21 20 20 19 19 19 18 17 17 17 17 17 17 17 16 16 15 14 14 15 14 14 13 12 11 9 8 6 6 7 8 8 8 8 7 6 5 6 7 7 7 7 5 3 2 1 2 2 3 4 4 5 8 10 10 10 10 8 7 8 7 7 9 10 10 11 13 15 16 16 17
24 24 26 26 25 25 25 25 24 23 22 21 21 21 21 21 20 20 20 20 19 18 18 17 17 17 18 18 18 17 16 15 15 16 16 15 14 12 11 9 8 8 7 7 6 6 6 7 7 6 5 6 7 7 6 4 2 0 2 3 4 4 5 5 4 4 7 9 9 8 7 6 5 7 7 7 9 11 12 13 15 16 17 18 18
23 23 24 26 25 26 27 27 26 24 23 21 20 20 20 20 19 19 19 18 18 18 17 16 16 17 18 19 19 19 19 17 17 16 16 14 13 11 10 9 8 8 8 7 7 6 6 5 5 6 6 6 5 6 4 1 1 2 4 4 5 5 5 4 3 4 5 7 8 8 6 5 5 6 8 8 10 13 15 15 16 16 17 17 17
21 22 24 25 26 26 26 26 25 25 23 21 20 20 20 20 18 18 18 18 18 18 16 15 15 15 17 19 20 20 20 19 17 16 15 14 12 11 10 9 9 8 8 7 7 7 6 5 5 5 7 7 5 4 3 1 2 3 4 4 4 4 3 2 2 3 4 6 9 8 6 5 7 8 9 10 13 15 17 17 16 16 16 17 18
15 19 21 22 23 22 20 19 21 22 21 19 20 21 21 20 18 18 19 19 19 18 15 14 14 14 16 18 19 20 20 18 17 15 14 14 13 12 12 11 11 10 10 9 9 8 8 7 8 8 8 7 5 3 2 2 2 3 3 3 3 3 2 1 2 4 5 8 9 8 6 7 9 10 12 14 16 17 18 16 15 15 16 17 20
13 16 18 20 21 19 17 19 22 22 19 19 20 21 20 19 18 19 20 20 20 18 15 14 14 15 17 18 18 19 18 18 17 16 14 13 13 13 13 13 12 11 11 10 10 9 9 9 9 9 7 6 4 3 3 3 3 3 3 3 3 3 3 3 4 6 8 9 8 7 8 9 10 12 15 16 17 18 17 14 13 14 16 18 19
11 13 17 19 20 18 17 19 21 21 19 19 20 20 19 19 19 20 20 20 19 17 15 15 15 16 17 17 18 18 18 18 18 16 15 14 13 13 13 13 13 13 12 12 11 11 11 10 9 8 6 5 4 4 4 3 3 4 4 4 4 4 4 4 4 6 7 7 6 7 10 11 11 13 15 17 16 15 12 10 11 14 17 18 16
9 10 12 15 16 16 16 18 19 19 19 20 20 20 20 20 20 20 20 19 18 18 17 16 17 18 18 18 18 19 19 19 18 17 15 14 13 13 13 14 15 15 14 13 12 12 11 10 8 6 5 4 4 4 3 3 3 4 4 3 3 3 3 3 3 4 4 4 5 8 11 12 12 12 12 12 11 8 7 9 14 17 18 17 15
Wind_Direction
168 163 159 160 162 160 153 147 142 126 105 92 80 71 78 84 88 114 121 110 100 92 93 86 81 117 132 165 182 174 172 177 178 177 171 167 164 165 163 154 167 185 162 145 143 137 133 126 110 82 82 110 128 138 144 143 129 125 126 120 120 124 122 117 118 118 119 118 114 111 110 108 106 108 106 100 102 102 112 122 114 105 110 113 108
178 172 168 169 169 167 161 155 147 130 108 94 84 70 79 85 83 105 113 107 110 111 116 115 120 156 151 165 182 178 174 177 178 178 174 171 168 167 165 161 174 183 157 149 149 144 146 142 124 85 79 86 115 128 139 140 127 127 132 129 133 128 117 114 116 118 122 120 116 115 111 111 109 108 105 97 93 89 98 114 108 102 109 107 107
183 178 175 176 175 171 167 168 167 156 137 116 100 74 85 93 92 106 108 109 120 126 134 137 136 153 155 161 176 176 178 179 180 181 180 177 172 169 166 167 176 176 163 162 156 144 155 163 115 75 111 110 112 119 124 125 120 128 132 131 129 119 111 106 106 113 122 119 114 111 107 107 109 107 105 98 95 91 93 106 106 101 103 89 86
186 183 181 183 181 180 183 187 194 188 176 158 136 102 100 102 105 115 114 115 127 135 144 148 146 148 145 154 169 172 180 183 185 189 187 180 177 175 169 167 174 176 178 181 166 140 156 188 203 105 121 111 115 121 116 113 112 121 124 120 116 110 110 112 109 94 99 108 105 106 101 98 103 105 108 105 100 97 95 101 100 100 112 98 83
188 185 187 191 194 197 202 201 198 192 184 173 153 131 120 117 118 120 119 125 135 142 149 153 153 152 143 148 162 168 178 183 188 192 187 182 182 183 176 170 174 178 183 191 186 154 148 183 211 163 148 132 123 120 111 101 91 83 70 87 108 112 104 103 109 99 90 94 92 98 101 101 102 104 110 110 102 99 98 97 96 97 113 114 102
189 189 193 198 205 205 205 201 191 185 180 168 149 137 134 129 126 126 128 136 144 150 155 154 154 155 148 150 159 163 172 180 188 191 186 186 188 188 183 180 179 177 184 196 204 185 153 164 188 197 187 159 134 128 122 99 78 65 43 27 64 124 114 99 114 127 109 91 91 102 104 101 95 100 109 111 103 99 100 95 96 94 97 121 123
188 193 197 199 202 198 195 192 184 180 178 168 150 139 136 133 131 132 135 142 147 153 159 155 152 150 150 156 161 161 167 179 189 192 192 192 192 190 187 189 189 183 188 200 209 204 184 158 154 203 233 193 168 170 153 118 89 62 38 21 22 84 117 113 124 118 111 109 96 77 87 99 95 99 105 104 98 98 100 92 93 93 91 108 112
187 191 195 197 195 191 188 186 182 178 175 171 160 149 144 140 139 137 139 143 147 154 156 154 149 146 147 152 157 161 168 179 188 191 194 195 192 191 191 193 194 193 197 205 209 206 207 185 154 183 234 141 166 181 182 158 111 67 48 39 41 66 81 103 135 116 124 135 73 62 57 75 94 94 96 93 88 94 100 94 91 90 90 96 99
183 188 196 197 191 189 188 184 180 175 173 174 169 160 151 146 145 146 148 148 151 153 151 152 151 142 137 133 137 150 161 170 176 181 186 190 191 192 194 197 197 198 202 206 206 205 211 215 181 161 113 65 46 246 253 174 92 329 100 80 57 75 74 70 112 147 159 117 88 88 4 24 99 99 98 101 87 90 98 96 93 91 93 93 99
185 188 193 191 185 187 187 182 176 170 171 173 170 161 154 158 154 150 154 153 156 157 150 149 144 129 120 113 116 128 140 155 164 169 179 187 193 195 195 200 203 203 205 206 204 206 208 207 196 172 160 151 282 282 280 110 52 292 263 109 85 82 95 81 81 117 147 119 96 96 318 350 111 90 82 103 96 87 87 91 92 89 93 92 94
186 182 180 180 181 183 181 177 172 169 171 170 167 162 157 167 165 156 154 147 151 156 151 147 132 115 108 97 91 97 110 135 151 155 169 184 193 196 198 202 206 208 207 205 204 207 204 203 201 190 190 202 224 266 310 135 185 278 269 176 128 94 103 92 78 88 105 110 115 4 345 248 138 81 59 65 81 85 76 79 83 77 83 90 87
176 172 172 177 177 175 172 172 173 173 174 168 164 164 158 162 165 165 163 147 139 146 155 152 124 101 93 86 81 83 92 107 119 132 156 180 193 199 204 204 208 208 200 197 201 202 202 206 208 208 210 211 216 220 154 205 228 256 269 228 180 169 140 117 93 86 89 97 100 69 51 75 141 103 61 53 66 75 62 64 70 61 68 78 74
167 166 170 173 169 167 168 169 173 175 172 166 164 166 161 160 162 169 178 161 144 146 161 153 122 101 91 84 79 77 81 92 96 104 144 181 200 207 209 210 216 212 193 188 194 198 206 212 214 217 221 221 223 223 215 233 241 249 269 256 207 205 202 172 146 114 91 87 83 69 58 64 78 93 86 67 73 72 50 50 49 41 43 44 42
163 164 167 167 164 165 168 167 169 172 171 170 171 171 168 166 163 166 181 177 156 156 165 156 128 120 111 93 80 75 75 80 84 79 86 156 202 206 208 214 221 221 197 190 194 197 206 213 217 221 223 226 222 213 215 229 243 254 264 277 280 253 235 186 173 169 151 126 93 71 63 65 67 74 87 83 85 82 56 47 40 36 37 35 30
159 158 161 162 162 163 165 165 166 170 173 175 173 171 170 170 169 169 177 179 165 160 168 172 147 136 120 104 93 76 71 69 73 74 73 74 85 152 147 190 212 219 214 204 198 198 209 217 223 225 225 230 219 207 220 227 237 256 268 296 330 321 283 164 171 183 182 180 175 139 90 80 77 72 74 75 77 81 70 51 39 37 45 49 45
148 147 152 155 157 156 157 159 158 160 165 166 159 159 163 164 168 175 179 180 173 170 180 198 171 149 123 92 111 95 85 75 73 68 68 69 56 64 94 116 168 197 216 216 199 198 211 218 224 234 236 236 226 215 225 230 227 249 269 285 308 304 282 122 160 197 204 197 185 169 136 104 100 86 78 74 66 57 32 17 28 35 51 61 61
140 141 144 145 146 144 144 145 144 148 151 150 145 144 153 158 162 173 184 189 190 185 193 208 188 170 143 123 111 78 159 146 105 70 62 67 59 66 97 137 149 161 188 192 189 202 215 209 213 238 253 244 233 225 222 225 231 251 267 268 267 286 294 73 139 200 214 208 198 193 196 201 201 187 172 184 275 311 310 294 305 342 31 62 68
138 138 140 140 141 140 140 141 140 143 146 149 149 144 149 158 164 171 184 198 204 199 198 197 191 194 196 174 151 205 165 148 126 81 75 72 63 70 86 99 116 123 132 117 96 85 48 89 116 220 301 41 203 226 186 154 181 229 237 223 229 250 225 201 168 168 209 214 210 215 218 217 224 240 240 248 289 321 342 319 303 293 288 312 352
138 136 139 141 142 141 142 144 143 140 142 151 157 157 162 166 172 177 185 197 205 206 202 188 188 206 223 225 276 188 163 152 146 140 107 80 70 77 80 71 68 71 75 73 71 69 70 81 85 71 55 65 73 74 77 90 107 117 124 126 118 137 173 186 172 131 142 203 182 26 345 169 132 301 285 300 333 350 353 327 308 295 291 300 299
141 139 139 141 146 146 148 152 151 148 149 157 164 173 182 180 181 183 187 193 201 211 206 191 191 198 198 209 198 162 160 155 152 136 114 107 85 85 92 86 78 76 75 70 73 78 81 91 93 76 69 78 82 85 91 98 103 103 99 97 102 119 128 124 119 94 81 97 90 72 76 80 79 77 66 55 48 37 19 359 351 345 350 355 339
149 148 143 145 156 158 158 159 158 159 160 163 170 179 185 181 178 177 178 183 193 209 207 197 199 196 167 146 139 143 140 140 142 126 111 126 119 103 103 94 86 85 91 92 87 84 83 87 90 88 88 91 92 94 100 108 109 105 101 96 95 99 102 99 98 97 93 93 93 90 86 81 78 79 75 69 68 64 57 54 50 47 49 49 43
160 160 154 157 165 165 164 161 162 168 169 170 176 179 176 165 160 164 167 172 180 191 197 200 204 195 172 153 146 141 130 133 141 127 115 114 113 117 104 96 92 88 94 100 91 84 87 89 89 94 96 95 95 98 103 108 109 105 100 95 91 91 96 99 99 97 95 91 90 89 87 85 82 80 79 77 74 73 71 69 67 67 66 62 56
162 163 165 177 173 166 164 163 168 178 179 177 178 176 169 154 146 150 156 164 170 176 182 191 196 191 182 172 166 163 156 164 166 152 137 128 125 114 105 103 97 93 97 94 89 89 93 96 97 96 99 99 100 103 105 106 104 102 100 97 95 94 96 99 97 95 95 94 92 90 89 89 87 83 80 78 75 73 70 69 68 68 68 65 60
159 163 174 184 173 165 165 167 170 176 176 172 170 169 162 151 147 147 149 155 161 167 172 175 183 187 185 185 185 184 184 183 176 166 152 144 137 124 124 119 102 105 111 98 92 98 99 101 105 106 107 107 106 106 106 105 103 100 100 100 98 97 97 97 96 94 92 92 91 90 89 86 84 81 77 74 70 66 62 58 56 54 51 48 43
156 162 172 173 168 167 170 170 163 160 162 162 161 160 155 150 149 144 141 145 151 158 161 160 165 172 175 185 193 192 192 185 179 171 151 143 135 125 127 126 121 125 117 103 101 102 103 106 108 110 112 111 109 108 106 104 104 103 102 101 100 100 100 97 96 94 91 89 88 86 86 84 82 79 74 70 64 59 54 50 45 42 38 33 27
158 160 164 164 164 167 166 163 160 157 157 158 155 152 151 151 146 137 129 130 136 141 141 142 146 153 166 183 192 195 195 185 182 174 156 147 140 133 127 118 124 126 112 115 114 101 113 116 113 112 112 112 110 108 108 106 105 107 105 105 106 104 102 100 96 93 90 87 85 84 83 81 78 75 71 67 62 57 52 47 41 37 32 27 23
163 161 164 166 166 165 164 163 166 173 173 171 170 163 157 154 146 137 128 127 129 130 130 130 132 138 155 171 179 188 188 180 180 177 163 154 149 144 137 128 120 100 97 124 113 107 136 129 120 120 116 115 115 110 109 108 107 109 109 109 109 106 103 100 95 91 88 85 83 81 80 79 79 78 74 69 65 60 55 50 44 38 32 27 22
163 162 165 170 171 170 170 169 171 180 186 188 189 180 172 162 152 144 135 132 130 127 125 125 126 130 138 147 153 160 170 177 177 172 163 157 156 153 145 140 137 106 78 104 64 128 148 137 124 127 125 120 121 116 111 111 110 111 111 110 108 108 105 100 93 88 86 84 83 82 81 81 79 74 69 63 60 56 52 49 45 39 34 29 25
164 163 164 169 173 174 175 173 172 179 186 185 180 176 174 167 158 153 147 144 140 132 127 125 127 131 134 131 132 141 155 170 169 165 162 160 162 163 155 147 142 136 127 147 199 184 170 161 140 135 136 130 126 122 117 116 118 116 114 113 112 114 111 101 92 86 85 84 83 82 80 76 71 62 55 51 48 47 44 42 39 36 33 27 22
168 169 171 172 173 176 178 176 174 177 177 171 165 166 167 165 161 161 160 161 156 144 135 131 128 131 135 130 124 128 142 157 162 162 165 166 169 172 170 160 148 144 151 153 194 198 181 176 176 157 145 139 135 130 121 119 124 123 118 116 118 119 114 102 90 86 85 86 84 82 79 73 67 60 54 48 42 38 35 33 32 30 27 23 17
175 177 180 179 175 176 178 176 175 175 171 166 164 164 164 163 166 167 163 162 159 151 145 140 132 130 133 134 133 132 139 153 161 166 169 171 176 180 183 184 177 166 161 150 153 199 193 188 183 169 153 145 145 141 130 122 126 129 126 122 122 121 114 101 92 86 82 82 82 81 77 74 70 64 59 51 42 34 27 24 23 22 20 17 11
181 184 185 184 179 175 174 175 178 179 177 175 173 170 167 164 165 161 155 152 151 149 149 149 141 133 131 131 137 144 150 159 167 175 182 186 190 195 200 202 200 193 176 162 149 181 192 193 180 169 161 153 152 153 147 136 132 137 139 135 131 127 117 102 93 86 78 74 72 70 67 67 66 62 57 48 38 30 19 14 13 11 10 7 3
189 190 187 185 182 179 177 180 186 187 185 182 179 178 174 169 165 161 158 156 151 146 145 146 143 137 133 131 133 146 157 165 171 180 190 198 205 209 212 210 206 205 193 175 154 162 182 192 183 172 168 164 160 159 160 154 148 149 151 149 145 138 126 109 97 89 74 61 55 52 48 45 47 52 49 36 25 17 8 4 3 1 359 356 353
193 192 184 180 182 186 185 185 185 184 183 179 177 179 178 175 171 167 167 169 163 156 149 143 137 134 137 135 133 143 159 165 168 178 189 197 208 215 215 211 207 207 203 187 164 161 177 190 186 178 177 176 173 169 166 162 161 164 163 164 166 163 154 123 91 89 70 43 26 22 20 19 14 11 18 15 8 358 354 355 356 353 349 346 343
188 187 182 180 186 194 192 185 180 178 181 181 179 179 180 178 177 176 176 177 173 170 165 153 140 132 132 132 130 140 160 167 171 181 190 200 213 220 215 209 207 206 204 201 186 171 175 183 186 186 186 185 185 187 181 172 171 179 183 189 197 197 194 183 124 345 315 303 308 326 342 347 339 312 304 330 343 343 345 350 351 347 343 339 336
182 182 184 186 192 199 199 194 189 186 188 188 187 186 186 189 191 193 193 191 191 191 187 177 156 137 137 136 128 134 159 169 172 182 190 199 214 220 209 203 203 201 200 206 207 188 178 178 185 193 196 197 199 205 206 197 191 204 223 230 236 239 235 228 229 267 283 280 283 293 307 324 330 312 302 323 338 341 343 345 342 339 336 335 334
183 185 189 192 195 202 206 205 200 195 193 193 194 195 199 209 215 212 205 201 207 216 217 212 199 185 181 159 142 139 158 166 164 173 182 183 192 195 188 187 190 190 193 201 205 197 186 181 183 193 205 210 211 220 228 219 208 217 234 242 244 238 229 223 223 234 248 259 264 267 287 1 11 348 335 337 339 337 332 330 329 328 328 329 331
190 192 192 193 199 204 207 208 207 203 201 203 206 206 209 216 220 215 209 208 216 224 226 223 219 219 220 199 172 160 163 166 163 167 173 169 170 172 171 173 178 184 188 191 195 196 188 180 180 188 201 212 218 226 230 219 210 212 210 208 206 194 186 189 198 206 213 216 208 194 140 9 345 339 338 335 330 323 320 320 319 319 320 320 320
197 198 196 196 201 205 207 209 210 211 211 213 213 211 214 219 219 213 210 213 221 224 225 222 221 223 220 216 211 201 195 182 173 175 178 174 169 167 167 170 174 180 184 185 191 190 179 169 166 172 182 194 207 212 204 195 196 197 187 174 160 158 166 175 181 183 180 173 171 216 323 332 335 335 333 326 320 316 315 314 313 313 313 312 310
201 203 203 202 204 207 209 209 210 214 216 216 213 211 215 220 219 215 214 219 223 223 224 223 221 223 223 221 221 218 219 215 197 189 191 190 181 168 164 169 175 177 177 177 180 180 174 168 161 161 164 169 177 176 169 176 179 174 174 171 161 161 170 177 179 179 180 188 261 325 327 330 334 334 327 319 318 319 317 314 310 309 311 311 310
202 205 208 209 210 210 210 210 212 216 218 218 215 213 217 220 220 220 222 224 227 228 229 228 226 226 228 229 228 223 222 222 215 205 200 204 203 187 171 170 177 178 172 167 169 171 173 170 165 165 165 164 169 174 174 179 180 174 176 175 163 159 166 176 183 191 223 273 309 327 332 336 340 336 327 322 325 330 330 328 327 327 328 328 326
203 206 208 212 217 218 218 218 219 220 221 222 219 217 220 222 222 225 227 229 231 235 237 237 237 236 234 234 233 226 221 219 218 211 198 195 201 197 184 177 179 179 173 168 169 172 174 174 172 177 173 162 166 182 185 184 182 178 179 174 160 152 156 167 182 220 299 315 322 329 334 340 344 336 326 325 332 336 338 343 348 346 342 340 337
207 209 211 215 220 223 224 223 222 222 222 222 220 218 220 223 226 230 233 234 236 239 242 243 245 243 239 236 232 228 224 220 216 210 200 192 190 186 179 174 176 182 184 184 185 186 187 183 181 188 188 167 152 162 167 161 160 162 160 160 156 135 358 342 285 299 317 324 327 329 330 334 338 334 328 327 331 335 339 343 344 340 338 338 337
211 213 214 218 223 225 224 222 221 221 222 222 221 222 224 226 229 234 237 239 240 243 244 244 246 246 242 235 227 222 220 218 213 207 200 193 188 183 180 182 190 197 201 204 204 204 206 201 190 183 182 169 151 147 148 146 146 145 123 59 9 2 351 342 332 318 319 324 328 331 329 328 329 326 325 327 332 338 339 336 333 331 331 331 330
215 216 218 223 227 227 224 222 222 222 225 225 225 228 230 229 231 236 239 242 244 244 244 245 247 245 239 229 219 212 211 210 207 203 199 194 190 188 191 196 204 204 200 199 199 200 206 205 193 176 165 164 158 152 150 149 151 356 354 353 351 350 346 344 335 315 317 326 335 338 329 321 321 313 307 314 328 334 333 329 326 324 323 323 323
217 219 223 226 229 230 227 226 226 226 228 229 230 231 232 232 234 237 239 240 242 243 246 248 247 241 232 222 213 207 204 202 202 201 200 197 194 193 193 192 191 190 188 188 184 180 182 189 189 174 160 155 155 156 158 168 290 325 337 341 340 337 339 341 323 306 314 328 338 338 321 302 306 301 292 298 313 323 327 325 322 319 318 319 319
217 220 227 228 228 229 227 225 225 226 228 229 230 231 232 233 234 236 238 240 243 247 249 246 240 233 223 216 211 207 202 198 199 201 199 195 190 183 175 166 162 160 158 160 159 158 162 166 165 159 153 150 152 160 171 229 289 313 324 326 324 323 328 334 297 293 308 319 327 330 314 291 297 298 295 299 305 312 318 320 316 315 315 319 322
216 217 226 231 229 228 227 229 231 231 231 231 231 231 230 231 233 236 239 242 245 248 244 236 230 221 213 210 209 208 203 195 191 190 188 184 178 170 161 152 148 147 143 139 138 136 136 138 139 142 147 150 158 174 202 254 282 298 307 312 316 312 309 299 264 271 298 313 319 323 313 303 307 306 304 306 306 307 312 314 310 309 313 319 325
220 211 217 228 233 234 235 236 237 237 237 237 236 234 232 232 235 237 237 238 241 240 231 225 222 215 210 209 209 206 199 188 182 181 182 182 176 171 167 160 157 155 148 144 143 140 139 141 143 147 153 161 174 204 233 250 266 275 280 295 303 298 296 289 270 279 298 306 309 314 316 314 313 312 311 312 311 310 313 312 305 305 313 321 327
235 222 219 226 234 236 235 236 239 241 241 239 237 237 238 238 238 235 232 233 234 230 223 220 218 214 211 210 207 205 198 188 186 188 188 189 187 184 180 174 169 165 160 157 154 148 146 148 149 153 161 176 197 218 234 244 255 266 275 283 285 286 286 277 275 290 298 293 294 313 319 316 314 316 317 315 311 308 311 310 305 310 319 325 328
259 250 240 238 241 243 242 242 244 246 247 244 242 242 241 238 234 229 226 226 227 224 221 219 214 211 211 208 207 208 205 198 197 197 198 201 203 200 194 187 179 173 168 164 159 155 154 153 153 160 174 191 205 217 228 243 256 267 276 280 279 280 276 263 271 294 293 277 292 314 318 313 310 314 318 317 310 304 306 310 313 318 324 326 325